Location: Madrid
(40.4000°N, 3.6830°W)
Time: 19:58:01
(UTC+02:00)

ISS - Pass Details

Date: 24 September 2020
Orbit: 419 x 421 km, 51.6° (Epoch: 30 September)

Event Time Altitude Azimuth Distance (km) Brightness Sun altitude
Rises 21:41:47 0° 294° (WNW) 2,366 1.7 -18.5°
Reaches altitude 10° 21:44:49 10° 323° (NW) 1,502 -0.2 -19.1°
Maximum altitude 21:46:28 13° 353° (N) 1,333 -1.0 -19.4°
Enters shadow 21:47:59 10° 20° (NNE) 1,476 -1.0 -19.7°
